Regional Weather Roundup
Issued by NWS Newport/Morehead, NC

Current Version | Previous Version | Text Only | Print | Product List | Glossary On
Versions: 1 2 3 4 5 6 7 8 9 10 11 12 13 14 15 16 17 18 19 20 21 22 23 24 25 26 27 28 29 30 31 32 33 34 35 36 37 38 39 40 41 42 43 44 45 46 47 48 49 50
000
ASUS42 KMHX 290625
RWRMHX
WEATHER ROUNDUP FOR EASTERN NORTH CAROLINA
NATIONAL WEATHER SERVICE NEWPORT/MOREHEAD CITY NC
200 AM EDT FRI MAY 29 2015

NOTE: "FAIR" INDICATES FEW OR NO CLOUDS BELOW 12,000 FEET
WITH NO SIGNIFICANT WEATHER AND/OR OBSTRUCTIONS TO VISIBILITY

NCZ015>017-031-032-045>047-102-103-290700-
NORTH COAST

CITY           SKY/WX    TMP DP  RH WIND       PRES   REMARKS
EDENTON        CLEAR     69  64  84 S6        30.23F
ELIZABETH CITY CLEAR     66  62  87 CALM      30.23S
KITTY HAWK     PTCLDY    71  64  78 CALM      30.22F
MANTEO         PTCLDY    72  63  75 SW7       30.23F

$$

NCZ045>047-081-094-103-104-290700-
CENTRAL COAST

CITY           SKY/WX    TMP DP  RH WIND       PRES   REMARKS
FRISCO         CLEAR     72  63  73 S3        30.23F
SWANQUARTER      N/A     68 N/A N/A SE3       30.18F

$$

NCZ095-097-098-100-101-290700-
SOUTHERN COAST

CITY           SKY/WX    TMP DP  RH WIND       PRES   REMARKS
BEAUFORT       PTCLDY    65  62  90 CALM      30.22F
CEDAR ISLAND     N/A     66 N/A N/A S2        30.27S
JACKSONVILLE   CLEAR     64  62  93 CALM      30.21F
PINEY ISLAND   FLURRIES N/A N/A N/A SW3       30.22F
WILMINGTON     CLEAR     65  62  90 CALM      30.22F


$$

NCZ011>013-027>030-043-044-078>080-089-090>093-098-290700-
COASTAL PLAIN

CITY           SKY/WX    TMP DP  RH WIND       PRES   REMARKS
AHOSKIE        PTCLDY    68  63  84 S3        30.22F
CLINTON        PTCLDY    66  64  94 CALM      30.22F
ELIZABETHTOWN  CLEAR     66  64  94 CALM      30.22S
GOLDSBORO      PTCLDY    69  63  81 CALM      30.20F
GREENVILLE     PTCLDY    70  63  78 S3        30.24S
HAVELOCK       CLEAR     63  59  87 CALM      30.23F
KENANSVILLE    MOCLDY    63  61  93 CALM      30.24S
KINSTON        PTCLDY    67  64  88 CALM      30.23F
NEW BERN       CLEAR     64  59  83 CALM      30.24F
RICHLANDS      CLEAR     61  55  82 CALM      30.22F
ROCKY MOUNT    PTCLDY    70  64  81 SE3       30.22F
WASHINGTON     CLEAR     68  63  82 CALM      30.23F
WHITEVILLE     CLEAR     63  61  94 CALM      30.21F

$$

AMZ130-135-150-152-154-156-158-170-250-252-270-ANZ085-086-088-633-658-670-290700-
MARINE OBSERVATIONS

STATION/POSITION TIME  TEMP    WIND        PRES    WAVE   SWELL
                       AIR SEA DIR/SP/G            HT/PER HT/PER
                 (UTC) (F)     (DEG/KT/KT) (MB)    (FT/S) (FT/S)
CHESAPEAKE LIGHT 0600   69     190/ 15/ 15 1023.9
64 E VA BEACH    0550   66 65  130/  2/  2 1023.8    4/ 9   3/ 9
DUCK             0600   71 55  190/  4/  5 1022.7
2 E DUCK         0511      61                N/A     2/ 8
OREGON INLET     0600   73 78  170/  5/  7 1023.6
13E OREGON INLT  0600      74                N/A     3/ 9
HATTERAS CG      0600   74 76  170/  3/  4 1023.1
DIAMOND BUOY     0550   75 77  160/  6/  8 1023.5    4/ 9   3/ 9
CAPE LOOKOUT     0600   73     120/  3/  3 1023.1
BEAUFORT LAB     0600   71 76  110/  1/  2 1022.5
27 SE WRIGHTSVLE 0600      76   CALM  /  2   N/A
5 SE WRIGHTSVLE  0508   75 77  170/  6/ 10 1023.4
225 S CAPE HAT   0550   75 74   70/ 10/ 14 1021.8    5/ 9   5/ 9
41 SE CHARLESTON 0550   76 79  110/  8/ 10 1022.0    3/ 8   3/ 8

$$



USA.gov is the U.S. government's official web portal to all federal, state and local government web resources and services.